This demonstration page uses our WeatherBlox Daily Observations layout. Learn more.

Left ArrowRight Arrow

44.8408, -93.29828

Hourly Observations for March 6, 2015

Temp ( °F °C ) Dew Point ( °F °C ) Humidity (%) Winds ( mph kmh ) Pressure ( in mb ) Visibility ( mi km ) Precip ( " mm )
12:53 am 00:53 Partly Cloudy 7 -13.9 0 -17.8 73 73 SE 8 13 30.30 1026 10 16 0.00 0.00
1:53 am 01:53 Cloudy 10 -12.2 2 -16.7 69 69 SE 7 11 30.26 1025 10 16 0.00 0.00
2:53 am 02:53 Partly Cloudy 12 -11.1 1 -17.2 61 61 SSE 8 13 30.22 1023 10 16 0.00 0.00
3:53 am 03:53 Partly Cloudy 11 -11.7 0 -17.8 61 61 SSE 7 11 30.19 1023 10 16 0.00 0.00
4:53 am 04:53 Mostly Cloudy 9 -12.8 0 -17.8 66 66 SE 7 11 30.17 1022 10 16 0.00 0.00
5:53 am 05:53 Partly Cloudy 10 -12.2 1 -17.2 67 67 SSE 7 11 30.15 1021 10 16 0.00 0.00
6:53 am 06:53 Mostly Cloudy 14 -10 4 -15.6 64 64 S 7 11 30.14 1021 10 16 0.00 0.00
7:53 am 07:53 Partly Cloudy 16 -8.9 6 -14.4 65 65 S 6 9 30.12 1020 10 16 0.00 0.00
8:53 am 08:53 Mostly Cloudy 20 -6.7 8 -13.3 60 60 SW 8 13 30.12 1020 10 16 0.00 0.00
9:53 am 09:53 Sunny 25 -3.9 11 -11.7 55 55 SW 10 17 30.11 1020 10 16 0.00 0.00
10:53 am 10:53 Sunny 29 -1.7 12 -11.1 49 49 WSW 8 13 30.10 1019 10 16 0.00 0.00
11:53 am 11:53 Sunny 32 0 15 -9.4 50 50 WSW 7 11 30.10 1019 10 16 0.00 0.00
12:53 pm 12:53 Sunny 36 2 18 -8 48 48 NW 12 19 30.06 1018 10 16 0.00 0.00
1:53 pm 13:53 Mostly Sunny 38 3.3 18 -7.8 44 44 NW 10 17 30.07 1018 10 16 0.00 0.00
2:53 pm 14:53 Mostly Sunny 39 3.9 17 -8.3 41 41 NW 12 19 30.07 1018 10 16 0.00 0.00
3:53 pm 15:53 Partly Cloudy 37 2.8 17 -8.3 44 44 NW 9 15 30.08 1019 10 16 0.00 0.00
4:53 pm 16:53 Mostly Cloudy 36 2.2 16 -8.9 44 44 NW 9 15 30.09 1019 10 16 0.00 0.00
5:53 pm 17:53 Mostly Cloudy 34 1.1 17 -8.3 50 50 W 10 17 30.10 1019 10 16 0.00 0.00
6:53 pm 18:53 Mostly Cloudy 32 0 17 -8.3 54 54 W 7 11 30.11 1020 10 16 0.00 0.00
7:53 pm 19:53 Partly Cloudy 30 -1.1 17 -8.3 58 58 W 7 11 30.11 1020 10 16 0.00 0.00
8:53 pm 20:53 Partly Cloudy 29 -1.7 17 -8.3 61 61 WSW 6 9 30.11 1020 10 16 0.00 0.00
9:53 pm 21:53 Mostly Cloudy 28 -2.2 17 -8.3 63 63 WSW 6 9 30.11 1020 10 16 0.00 0.00
10:53 pm 22:53 Mostly Cloudy 28 -2.2 17 -8.3 63 63 SSW 6 9 30.08 1019 10 16 0.00 0.00
11:53 pm 23:53 Cloudy 28 -2.2 18 -7.8 66 66 S 3 6 30.04 1017 10 16 0.00 0.00

Powered by AerisWeather